Salina, KS

3:58 AM CST on February 25, 2018 (GMT -0600)
Salina Municipal

Weather History for KSLN - January, 2015

Change the Weather History Date:

Wednesday, January 28, 2015

  Actual Average Record
Temperature  
Mean Temperature 56 °F 32 °F  
Max Temperature 74 °F 43 °F 74 °F (2013)
Min Temperature 38 °F 21 °F -16 °F (1948)
Degree Days  
Heating Degree Days 9 33  
Month to date heating degree days 915 950  
Since 1 July heating degree days 2805 2914  
Cooling Degree Days 0 0  
Month to date cooling degree days 0 0  
Year to date cooling degree days 0 0  
Growing Degree Days 6 (Base 50)    
Moisture  
Dew Point 33 °F    
Average Humidity 51    
Maximum Humidity 79    
Minimum Humidity 22    
Precipitation  
Precipitation 0.00 in 0.03 in 0.67 in (2001)
Month to date precipitation 0.35 0.55  
Year to date precipitation 0.35 0.55  
Sea Level Pressure  
Sea Level Pressure 29.85 in    
Wind  
Wind Speed 10 mph (SW)    
Max Wind Speed 28 mph    
Max Gust Speed 34 mph    
Visibility 10 miles    
Events      
T = Trace of Precipitation, MM = Missing Value Source: NWS Daily Summary

Daily Weather History Graph

Daily Weather History Graph

Search for Another Location

Airport or City:

Trip Planner

Search our weather history database for the weather conditions in past years. The results will help you decide how hot, cold, wet, or windy it might be!

Date:

Astronomy

Jan. 28, 2015 Rise Set
Actual Time 7:40 AM CST 5:47 PM CST
Civil Twilight 7:11 AM CST 6:15 PM CST
Nautical Twilight 6:39 AM CST 6:47 PM CST
Astronomical Twilight 6:08 AM CST 7:19 PM CST
Moon 12:52 PM CST (1/28) 2:13 AM CST (1/28)
Length of Visible Light 11h 04m
Length of Day
10h 07m
Waxing Gibbous, 66% of the Moon is Illuminated
Jan 28
Waxing Gibbous
Feb 3
Full
Feb 11
Last Quarter
Feb 18
New
Feb 25
First Quarter

Hourly Weather History & Observations

Time (CST) Temp. Windchill Dew Point Humidity Pressure Visibility Wind Dir Wind Speed Gust Speed Precip Events Conditions
12:53 AM 44.1 °F 40.1 °F 34.0 °F 68% 29.91 in 10.0 mi South 6.9 mph - N/A   Clear
1:53 AM 42.1 °F 37.7 °F 33.1 °F 70% 29.90 in 10.0 mi SSE 6.9 mph - N/A   Clear
2:53 AM 42.1 °F 37.1 °F 32.0 °F 67% 29.89 in 10.0 mi SSE 8.1 mph - N/A   Clear
3:53 AM 41.0 °F 35.2 °F 32.0 °F 70% 29.87 in 10.0 mi South 9.2 mph - N/A   Clear
4:53 AM 42.1 °F 36.6 °F 33.1 °F 70% 29.86 in 10.0 mi South 9.2 mph - N/A   Clear
5:53 AM 39.9 °F 35.1 °F 30.9 °F 70% 29.86 in 10.0 mi South 6.9 mph - N/A   Clear
6:53 AM 39.9 °F 34.5 °F 33.1 °F 77% 29.85 in 10.0 mi South 8.1 mph - N/A   Clear
7:53 AM 39.9 °F 35.8 °F 32.0 °F 73% 29.86 in 10.0 mi South 5.8 mph - N/A   Clear
8:53 AM 48.9 °F - 37.0 °F 64% 29.84 in 10.0 mi SSW 8.1 mph - N/A   Clear
9:53 AM 55.0 °F - 36.0 °F 49% 29.83 in 10.0 mi SSW 12.7 mph - N/A   Clear
10:53 AM 60.1 °F - 36.0 °F 41% 29.80 in 10.0 mi South 9.2 mph - N/A   Clear
11:53 AM 62.1 °F - 36.0 °F 38% 29.80 in 10.0 mi West 17.3 mph - N/A   Clear
12:53 PM 64.0 °F - 35.1 °F 34% 29.77 in 10.0 mi WSW 8.1 mph - N/A   Clear
1:53 PM 66.9 °F - 34.0 °F 30% 29.76 in 10.0 mi WNW 10.4 mph - N/A   Clear
2:53 PM 70.0 °F - 33.1 °F 26% 29.75 in 10.0 mi WNW 11.5 mph - N/A   Clear
3:53 PM 73.0 °F - 32.0 °F 22% 29.75 in 10.0 mi WNW 8.1 mph - N/A   Clear
4:53 PM 69.1 °F - 33.1 °F 26% 29.76 in 10.0 mi WNW 8.1 mph - N/A   Clear
5:53 PM 62.6 °F - 33.8 °F 34% 29.79 in 10.0 mi West 8.1 mph - N/A   Clear
6:53 PM 61.0 °F - 33.1 °F 35% 29.82 in 10.0 mi West 11.5 mph - N/A   Clear
7:53 PM 60.1 °F - 32.0 °F 35% 29.85 in 10.0 mi West 15.0 mph - N/A   Clear
8:53 PM 60.1 °F - 33.1 °F 36% 29.90 in 10.0 mi WNW 18.4 mph - N/A   Clear
9:53 PM 57.0 °F - 30.9 °F 37% 29.94 in 10.0 mi NW 17.3 mph - N/A   Clear
10:53 PM 51.1 °F - 30.0 °F 44% 29.98 in 10.0 mi WNW 10.4 mph - N/A   Clear
11:53 PM 48.9 °F - 30.0 °F 48% 30.02 in 10.0 mi WNW 10.4 mph - N/A   Clear